EW5825 Weather Reports


time (UTC)temp
C
wind
direction
speed
KPH
gust
KPH
rain 1hr
cm
rain 24hr
cm
rain mn
cm
humidity
%
barometer
mb
20260508070002 11 131 3.2 6.4 0.00 0.00 0.00 57 1017.1
20260508060005 11 168 0.0 4.8 0.00 0.00 0.00 59 1017.1
20260508050002 11 63 3.2 3.2 0.00 0.00 0.00 60 1017.2
20260508040004 13 235 1.6 4.8 0.00 0.00 0.00 46 1016.9
20260508030001 13 244 3.2 4.8 0.00 0.00 0.00 45 1016.7
20260508020002 17 186 0.0 4.8 0.00 0.00 0.00 37 1015.9
20260508010000 18 39 0.0 6.4 0.00 0.00 0.00 31 1015.8
20260508000003 20 1 1.6 11.3 0.00 0.00 0.00 26 1016.2
20260507230002 20 333 4.8 14.5 0.00 0.00 0.00 29 1016.5
20260507222727 20 326 9.7 20.9 0.00 0.00 0.00 30 1017.2
20260507200001 17 48 8.0 11.3 0.00 0.00 0.00 29 1018.9
20260507192726 16 319 1.6 14.5 0.00 0.00 0.00 29 1020.0
20260507180005 14 38 4.8 9.7 0.00 0.00 0.00 30 1021.1
20260507172804 12 80 3.2 8.0 0.00 0.00 0.00 34 1021.7
20260507162749 10 324 3.2 9.7 0.00 0.00 0.00 38 1023.0
20260507150012 7 0 1.6 4.8 0.00 0.03 0.00 48 1023.7
20260507140003 4 68 3.2 4.8 0.00 0.23 0.00 64 1023.9
20260507132739 1 248 1.6 4.8 0.00 0.66 0.00 70 1023.6
20260507120005 -1 192 1.6 3.2 0.00 0.69 0.00 77 1023.2
20260507110003 0 250 1.6 3.2 0.00 0.69 0.00 72 1023.1
20260507100003 0 234 3.2 3.2 0.00 0.69 0.00 73 1022.8
20260507090003 0 235 1.6 4.8 0.00 0.69 0.00 72 1023.1
20260507080001 0 142 3.2 4.8 0.00 0.69 0.00 68 1022.8